Weather History for Mammoth, CA

Change the Weather History Date:

Sunday, June 2, 2013

  Actual Average Record
Temperature  
Mean Temperature 58 °F -  
Max Temperature 80 °F 66 °F 82 °F (2003)
Min Temperature 37 °F 55 °F 26 °F (2011)
Degree Days  
Heating Degree Days 6    
Growing Degree Days 8 (Base 50)    
Moisture  
Dew Point 27 °F    
Average Humidity 31    
Maximum Humidity 61    
Minimum Humidity 12    
Precipitation  
Precipitation 0.00 in - - ()
Sea Level Pressure  
Sea Level Pressure 30.06 in    
Wind  
Wind Speed 5 mph (West)    
Max Wind Speed 22 mph    
Max Gust Speed 37 mph    
Visibility 10 miles    
Events      
Averages and records for this station are not official NWS values.
T = Trace of Precipitation, MM = Missing Value Source: NWS Daily Summary

Daily Weather History Graph

Daily Weather History Graph

Search for Another Location

Airport:

Trip Planner

Search our weather history database for the weather conditions in past years. The results will help you decide how hot, cold, wet, or windy it might be!

Date:

Astronomy

Jun. 02, 2013 Rise Set
Actual Time 5:35 AM PDT 8:12 PM PDT
Civil Twilight 5:04 AM PDT 8:42 PM PDT
Nautical Twilight 4:26 AM PDT 9:21 PM PDT
Astronomical Twilight 3:43 AM PDT 10:03 PM PDT
Moon 1:58 AM PDT (6/2) 2:52 PM PDT (6/2)
Length of Visible Light 15h 38m
Length of Day
14h 37m
Waning Crescent, 30% of the Moon is Illuminated
Jun 2
Waning Crescent
Jun 8
New
Jun 16
First Quarter
Jun 23
Full
Jun 29
Last Quarter

Hourly Weather History & Observations

Time (PDT) Temp. Windchill Dew Point Humidity Pressure Visibility Wind Dir Wind Speed Gust Speed Precip Events Conditions
12:15 AM 50.0 °F - 26.6 °F 40% 30.17 in 10.0 mi Calm Calm - N/A   Clear
12:35 AM 50.0 °F - 26.6 °F 40% 30.16 in 10.0 mi Calm Calm - N/A   Clear
12:55 AM 48.2 °F - 24.8 °F 40% 30.15 in 10.0 mi Calm Calm - N/A   Clear
1:15 AM 44.6 °F 43.1 °F 24.8 °F 46% 30.15 in 10.0 mi NNW 3.5 mph - N/A   Clear
1:35 AM 44.6 °F 42.2 °F 26.6 °F 49% 30.15 in 10.0 mi NNW 4.6 mph - N/A   Clear
1:55 AM 42.8 °F 41.1 °F 24.8 °F 49% 30.14 in 10.0 mi North 3.5 mph - N/A   Clear
2:15 AM 44.6 °F - 24.8 °F 46% 30.14 in 10.0 mi Calm Calm - N/A   Clear
2:35 AM 42.8 °F 41.1 °F 24.8 °F 49% 30.13 in 10.0 mi West 3.5 mph - N/A   Clear
2:55 AM 41.0 °F - 23.0 °F 49% 30.12 in 10.0 mi Calm Calm - N/A   Clear
3:15 AM 41.0 °F - 24.8 °F 53% 30.12 in 10.0 mi Calm Calm - N/A   Clear
3:35 AM 41.0 °F 39.0 °F 24.8 °F 53% 30.12 in 10.0 mi WNW 3.5 mph - N/A   Clear
3:55 AM 39.2 °F - 24.8 °F 56% 30.11 in 10.0 mi Calm Calm - N/A   Clear
4:15 AM 39.2 °F 37.0 °F 24.8 °F 56% 30.11 in 10.0 mi North 3.5 mph - N/A   Clear
4:35 AM 41.0 °F - 26.6 °F 57% 30.10 in 10.0 mi Calm Calm - N/A   Clear
4:55 AM 37.4 °F 34.9 °F 24.8 °F 60% 30.10 in 10.0 mi North 3.5 mph - N/A   Clear
5:15 AM 41.0 °F - 26.6 °F 57% 30.10 in 10.0 mi Calm Calm - N/A   Clear
5:35 AM 41.0 °F - 28.4 °F 61% 30.10 in 10.0 mi Calm Calm - N/A   Clear
5:55 AM 39.2 °F - 26.6 °F 61% 30.10 in 10.0 mi Calm Calm - N/A   Clear
6:15 AM 37.4 °F 34.9 °F 24.8 °F 60% 30.10 in 10.0 mi North 3.5 mph - N/A   Clear
6:35 AM 42.8 °F - 28.4 °F 57% 30.10 in 10.0 mi Calm Calm - N/A   Clear
6:55 AM 46.4 °F 45.2 °F 28.4 °F 50% 30.10 in 10.0 mi North 3.5 mph - N/A   Clear
7:15 AM 50.0 °F - 30.2 °F 47% 30.10 in 10.0 mi Calm Calm - N/A   Clear
7:35 AM 55.4 °F - 30.2 °F 38% 30.09 in 10.0 mi Calm Calm - N/A   Clear
7:55 AM 59.0 °F - 30.2 °F 34% 30.09 in 10.0 mi Calm Calm - N/A   Clear
8:15 AM 62.6 °F - 30.2 °F 30% 30.09 in 10.0 mi Calm Calm - N/A   Clear
8:35 AM 66.2 °F - 32.0 °F 28% 30.09 in 10.0 mi SE 5.8 mph - N/A   Clear
8:55 AM 66.2 °F - 32.0 °F 28% 30.08 in 10.0 mi East 4.6 mph - N/A   Clear
9:15 AM 69.8 °F - 30.2 °F 23% 30.08 in 10.0 mi SE 8.1 mph - N/A   Clear
9:35 AM 71.6 °F - 26.6 °F 19% 30.07 in 10.0 mi ESE 6.9 mph - N/A   Clear
9:55 AM 73.4 °F - 26.6 °F 18% 30.07 in 10.0 mi East 8.1 mph - N/A   Unknown
10:15 AM 73.4 °F - 23.0 °F 15% 30.07 in 10.0 mi SE 4.6 mph - N/A   Unknown
10:35 AM 75.2 °F - 23.0 °F 14% 30.07 in 10.0 mi South 8.1 mph 16.1 mph N/A   Clear
10:55 AM 75.2 °F - 21.2 °F 13% 30.06 in 10.0 mi SW 15.0 mph 21.9 mph N/A   Clear
11:15 AM 75.2 °F - 21.2 °F 13% 30.06 in 10.0 mi SW 17.3 mph 25.3 mph N/A   Clear
11:35 AM 77.0 °F - 21.2 °F 12% 30.06 in 10.0 mi SW 15.0 mph 21.9 mph N/A   Clear
11:55 AM 77.0 °F - 21.2 °F 12% 30.05 in 10.0 mi South 10.4 mph 21.9 mph N/A   Clear
12:15 PM 78.8 °F - 21.2 °F 12% 30.05 in 10.0 mi South 11.5 mph 26.5 mph N/A   Clear
12:35 PM 78.8 °F - 23.0 °F 13% 30.04 in 10.0 mi WSW 11.5 mph 23.0 mph N/A   Clear
12:55 PM 78.8 °F - 23.0 °F 13% 30.03 in 10.0 mi SW 9.2 mph 25.3 mph N/A   Clear
1:15 PM 78.8 °F - 23.0 °F 13% 30.03 in 10.0 mi West 13.8 mph 20.7 mph N/A   Clear
1:35 PM 80.6 °F - 24.8 °F 13% 30.03 in 10.0 mi West 10.4 mph 24.2 mph N/A   Clear
1:55 PM 80.6 °F - 24.8 °F 13% 30.03 in 10.0 mi West 20.7 mph 27.6 mph N/A   Clear
2:15 PM 78.8 °F - 24.8 °F 14% 30.03 in 10.0 mi West 15.0 mph 27.6 mph N/A   Clear
2:35 PM 78.8 °F - 24.8 °F 14% 30.03 in 10.0 mi WNW 15.0 mph 36.8 mph N/A   Clear
2:55 PM 78.8 °F - 24.8 °F 14% 30.03 in 10.0 mi West 13.8 mph 26.5 mph N/A   Clear
3:15 PM 78.8 °F - 26.6 °F 15% 30.03 in 10.0 mi West 21.9 mph 26.5 mph N/A   Clear
3:35 PM 78.8 °F - 26.6 °F 15% 30.03 in 10.0 mi WSW 17.3 mph 26.5 mph N/A   Clear
3:55 PM 78.8 °F - 26.6 °F 15% 30.03 in 10.0 mi West 13.8 mph 26.5 mph N/A   Clear
4:15 PM 78.8 °F - 28.4 °F 16% 30.02 in 10.0 mi WSW 17.3 mph 25.3 mph N/A   Clear
4:35 PM 77.0 °F - 28.4 °F 17% 30.02 in 10.0 mi WNW 19.6 mph 25.3 mph N/A   Clear
4:55 PM 77.0 °F - 28.4 °F 17% 30.01 in 10.0 mi West 9.2 mph 28.8 mph N/A   Clear
5:15 PM 77.0 °F - 28.4 °F 17% 30.01 in 10.0 mi West 20.7 mph 27.6 mph N/A   Clear
5:35 PM 77.0 °F - 28.4 °F 17% 30.00 in 10.0 mi West 16.1 mph 24.2 mph N/A   Clear
5:55 PM 75.2 °F - 28.4 °F 18% 30.00 in 10.0 mi West 20.7 mph 25.3 mph N/A   Clear
6:15 PM 75.2 °F - 30.2 °F 19% 30.00 in 10.0 mi West 18.4 mph 27.6 mph N/A   Clear
6:35 PM 73.4 °F - 30.2 °F 20% 30.00 in 10.0 mi West 21.9 mph 27.6 mph N/A   Clear
6:55 PM 73.4 °F - 30.2 °F 20% 30.00 in 10.0 mi WNW 20.7 mph 28.8 mph N/A   Clear
7:15 PM 71.6 °F - 30.2 °F 22% 30.00 in 10.0 mi WNW 20.7 mph 27.6 mph N/A   Clear
7:35 PM 69.8 °F - 30.2 °F 23% 30.00 in 10.0 mi WNW 20.7 mph 26.5 mph N/A   Clear
7:55 PM 68.0 °F - 30.2 °F 24% 30.00 in 10.0 mi West 8.1 mph 25.3 mph N/A   Clear
8:15 PM 66.2 °F - 30.2 °F 26% 30.00 in 10.0 mi WSW 8.1 mph 17.3 mph N/A   Clear
8:35 PM 66.2 °F - 30.2 °F 26% 30.00 in 10.0 mi West 5.8 mph - N/A   Clear
8:55 PM 64.4 °F - 30.2 °F 28% 30.01 in 10.0 mi SW 5.8 mph - N/A   Clear
9:15 PM 62.6 °F - 30.2 °F 30% 30.02 in 10.0 mi Calm Calm - N/A   Clear
9:35 PM 62.6 °F - 32.0 °F 32% 30.03 in 10.0 mi Calm Calm - N/A   Clear
9:55 PM 59.0 °F - 30.2 °F 34% 30.03 in 10.0 mi Calm Calm - N/A   Clear
10:15 PM 57.2 °F - 30.2 °F 36% 30.04 in 10.0 mi NNE 3.5 mph - N/A   Clear
10:35 PM 55.4 °F - 32.0 °F 41% 30.04 in 10.0 mi Calm Calm - N/A   Clear
10:55 PM 55.4 °F - 32.0 °F 41% 30.05 in 10.0 mi SSE 3.5 mph - N/A   Clear
11:15 PM 55.4 °F - 32.0 °F 41% 30.05 in 10.0 mi Calm Calm - N/A   Clear
11:35 PM 53.6 °F - 32.0 °F 44% 30.05 in 10.0 mi Calm Calm - N/A   Clear
11:55 PM 50.0 °F - 30.2 °F 47% 30.07 in 10.0 mi Calm Calm - N/A   Clear